This demonstration page uses our WeatherBlox Daily Observations layout. Learn more.

Left ArrowRight Arrow

34.74481, -87.66753

Hourly Observations for December 31, 2020

Temp ( °F °C ) Dew Point ( °F °C ) Humidity (%) Winds ( mph kmh ) Pressure ( in mb ) Visibility ( mi km ) Precip ( " mm )
12:53 am 00:53 Cloudy 59 15 52 11.1 78 78 NNW 7 11 30.00 1016 10 16 0.00 0.00
1:53 am 01:53 Cloudy 53 11.7 46 7.8 77 77 NNE 10 17 30.03 1017 10 16 0.00 0.00
2:01 am 02:01 Cloudy 53 11.7 46 7.8 77 77 N 8 13 30.04 1017 10 16 0.00 0.00
2:53 am 02:53 Cloudy 50 10 43 6.1 77 77 N 7 11 30.03 1017 7 11 0.00 0.00
3:00 am 03:00 Cloudy with Light Rain 50 10 43 6.1 77 77 N 7 11 30.05 1018 6 10 0.00 0.00
3:11 am 03:11 Cloudy 49 9.4 42 5.6 77 77 N 9 15 30.06 1018 10 16 0.00 0.00
3:36 am 03:36 Cloudy 48 8.9 41 5 77 77 NNE 12 19 30.05 1018 8 13 0.00 0.00
3:53 am 03:53 Cloudy with Light Rain 47 8.3 41 5 80 80 NNE 9 15 30.03 1017 5 8 0.00 0.00
4:05 am 04:05 Cloudy with Haze 47 8.3 42 5.6 83 83 NNE 9 15 30.05 1018 6 10 0.00 0.00
4:53 am 04:53 Cloudy 47 8.3 41 5 80 80 NE 8 13 30.04 1017 8 13 0.00 0.00
5:53 am 05:53 Cloudy 47 8.3 40 4.4 77 77 NE 7 11 30.05 1018 10 16 0.00 0.00
6:53 am 06:53 Cloudy 46 7.8 40 4.4 79 79 N 7 11 30.08 1019 10 16 0.00 0.00
7:53 am 07:53 Cloudy 46 7.8 40 4.4 79 79 NE 8 13 30.09 1019 10 16 0.00 0.00
8:53 am 08:53 Cloudy 47 8.3 41 5 80 80 NE 6 9 30.12 1020 10 16 0.00 0.00
9:53 am 09:53 Cloudy 47 8.3 41 5 80 80 NE 7 11 30.12 1020 10 16 0.00 0.00
10:53 am 10:53 Cloudy 49 9.4 42 5.6 77 77 E 6 9 30.09 1019 10 16 0.00 0.00
11:13 am 11:13 Cloudy 50 10 43 6.1 77 77 ESE 8 13 30.09 1019 10 16 0.00 0.00
11:49 am 11:49 Cloudy 52 11 43 6 72 72 ESE 6 9 30.08 1018 10 16 0.00 0.00
11:53 am 11:53 Cloudy 51 10.6 43 6.1 74 74 ESE 6 9 30.06 1018 10 16 0.00 0.00
12:25 pm 12:25 Cloudy 52 11.1 43 6.1 72 72 ENE 5 7 30.07 1018 10 16 0.00 0.00
12:53 pm 12:53 Cloudy 52 11.1 44 6.7 75 75 ENE 5 7 30.04 1017 10 16 0.00 0.00
1:53 pm 13:53 Cloudy 53 11.7 45 7.2 74 74 ENE 8 13 30.04 1017 10 16 0.00 0.00
2:13 pm 14:13 Cloudy 53 11.7 46 7.8 77 77 NE 10 17 30.04 1017 10 16 0.00 0.00
2:53 pm 14:53 Cloudy 52 11.1 45 7.2 77 77 NE 9 15 30.04 1017 10 16 0.00 0.00
3:50 pm 15:50 Cloudy 52 11 45 7 77 77 ENE 7 11 30.05 1017 10 16 0.00 0.00
3:53 pm 15:53 Cloudy 52 11.1 44 6.7 75 75 ENE 8 13 30.04 1017 10 16 0.00 0.00
4:53 pm 16:53 Cloudy 50 10 42 5.6 74 74 NE 9 15 30.03 1017 10 16 0.00 0.00
5:25 pm 17:25 Cloudy 49 9.4 41 5 74 74 ENE 9 15 30.04 1017 10 16 0.00 0.00
5:53 pm 17:53 Cloudy 48 8.9 41 5 77 77 ENE 12 19 30.01 1016 10 16 0.00 0.00
6:53 pm 18:53 Cloudy 49 9.4 42 5.6 77 77 E 7 11 30.03 1017 10 16 0.00 0.00
7:53 pm 19:53 Cloudy 50 10 43 6.1 77 77 ENE 6 9 30.04 1017 10 16 0.00 0.00
8:11 pm 20:11 Cloudy with Haze 49 9.4 43 6.1 80 80 ENE 7 11 30.04 1017 4 6 0.00 0.00
8:23 pm 20:23 Cloudy with Haze 49 9.4 43 6.1 80 80 ENE 8 13 30.03 1017 3 4 0.00 0.00
8:31 pm 20:31 Cloudy with Haze 49 9.4 43 6.1 80 80 ENE 6 9 30.04 1017 4 6 0.00 0.00
8:53 pm 20:53 Cloudy with Haze 49 9.4 44 6.7 83 83 ENE 6 9 30.02 1017 6 10 0.00 0.00
9:53 pm 21:53 Cloudy 50 10 44 6.7 80 80 E 8 13 30.00 1016 9 14 0.00 0.00
10:53 pm 22:53 Cloudy 51 10.6 46 7.8 83 83 NE 6 9 29.98 1015 8 13 0.00 0.00
11:53 pm 23:53 Cloudy with Heavy Rain 52 11.1 48 8.9 86 86 E 7 11 29.93 1014 3 4 0.08 2.03

Powered by AerisWeather